Location: Unspecified
(63.1830°N, 0.0000°E)
Time: 05:00:02
(UTC+00:00)

CZ-6A DEB - Visible Passes

Search period start: 04 April 2026 00:00
Search period end: 14 April 2026 00:00
Orbit: 648 x 783 km, 98.6° (Epoch: 29 March)

Date Brightness Start Highest point End Pass type
(mag) Time Alt. Az. Time Alt. Az. Time Alt. Az.
4 Apr ? 20:21:35 10° S 20:26:29 52° WSW 20:31:13 10° NNW visible
4 Apr ? 22:02:58 10° WSW 22:05:32 14° W 22:08:04 10° NW visible
5 Apr ? 21:09:18 10° SSW 21:13:34 28° W 21:17:43 10° NNW visible
6 Apr ? 20:17:01 10° S 20:21:54 55° WSW 20:26:39 10° NNW visible
6 Apr ? 21:58:09 10° WSW 22:00:54 15° W 22:03:37 10° NW visible
7 Apr ? 21:04:38 10° SSW 21:08:57 29° W 21:13:08 10° NNW visible
8 Apr ? 20:12:25 10° S 20:17:18 59° WSW 20:22:02 10° NNW visible
8 Apr ? 21:53:18 10° WSW 21:56:14 16° W 21:59:07 10° NW visible
9 Apr ? 20:59:57 10° SSW 21:04:18 31° W 21:08:32 10° NNW visible
10 Apr ? 20:07:48 10° S 20:12:40 63° WSW 20:17:22 10° NNW visible
10 Apr ? 21:48:28 10° WSW 21:51:32 17° W 21:54:34 10° NW visible
11 Apr ? 20:55:13 10° SSW 20:59:36 33° W 21:03:53 10° NNW visible
12 Apr ? 21:43:35 10° SW 21:46:48 18° W 21:49:58 10° NW visible
13 Apr ? 20:50:28 10° SSW 20:54:53 35° W 20:59:11 10° NNW visible
